PGT362 LROP-LTFJ

Flight info

Callsign PGT362
Flight time 0h 52m
Altitude 39000
Route IDARU DCT MATEL N616 RIXEN L620 GINLI
Aircraft A20N/M-SDE2E3FGHIRWXY/LB1

Departure

Time 2026-04-30 08:55
Airport Bucharest Henri Coandă International Airport (LROP)

Arrival

Time 2026-04-30 09:47
Airport Istanbul Sabiha Gökçen International Airport (LTFJ)
Time Latitude Longitude Altitude Speed Heading
2026-04-30 08:24 44.56959 26.09808 321 ft 0 kts 173°
2026-04-30 08:49 44.56952 26.09809 322 ft 2 kts 173°
2026-04-30 08:49 44.56927 26.09812 321 ft 5 kts 176°
2026-04-30 08:49 44.56910 26.09778 319 ft 6 kts 264°
2026-04-30 08:49 44.56902 26.09675 321 ft 15 kts 264°
2026-04-30 08:50 44.56889 26.09508 320 ft 18 kts 264°
2026-04-30 08:50 44.56880 26.09389 322 ft 20 kts 263°
2026-04-30 08:50 44.56867 26.09212 321 ft 19 kts 264°
2026-04-30 08:50 44.56847 26.08957 320 ft 20 kts 264°
2026-04-30 08:51 44.56837 26.08824 319 ft 21 kts 264°
2026-04-30 08:51 44.56818 26.08586 322 ft 13 kts 274°
2026-04-30 08:51 44.56877 26.08557 321 ft 11 kts 354°
2026-04-30 08:51 44.56936 26.08548 321 ft 15 kts 354°
2026-04-30 08:52 44.57051 26.08531 322 ft 18 kts 354°
2026-04-30 08:52 44.57216 26.08508 322 ft 18 kts 354°
2026-04-30 08:52 44.57297 26.08497 320 ft 16 kts 354°
2026-04-30 08:52 44.57406 26.08480 321 ft 16 kts 354°
2026-04-30 08:53 44.57522 26.08463 322 ft 16 kts 354°
2026-04-30 08:53 44.57546 26.08460 321 ft 2 kts 354°
2026-04-30 08:53 44.57581 26.08455 322 ft 9 kts 354°
2026-04-30 08:53 44.57655 26.08450 323 ft 10 kts 20°
2026-04-30 08:54 44.57670 26.08532 321 ft 9 kts 82°
2026-04-30 08:54 44.57688 26.08775 322 ft 56 kts 84°
2026-04-30 08:54 44.57751 26.09612 322 ft 114 kts 84°
2026-04-30 08:54 44.57836 26.10892 573 ft 134 kts 82°
2026-04-30 08:55 44.57903 26.12182 1257 ft 133 kts 79°
2026-04-30 08:55 44.57999 26.13482 1873 ft 137 kts 79°
2026-04-30 08:55 44.58111 26.14845 2362 ft 149 kts 80°
2026-04-30 08:55 44.58228 26.16371 2769 ft 165 kts 82°
2026-04-30 08:56 44.58358 26.18083 3077 ft 186 kts 82°
2026-04-30 08:56 44.58501 26.20005 3439 ft 212 kts 82°
2026-04-30 08:56 44.58666 26.22179 4110 ft 235 kts 83°
2026-04-30 08:56 44.58844 26.24503 5134 ft 241 kts 84°
2026-04-30 08:57 44.59029 26.26906 6025 ft 255 kts 85°
2026-04-30 08:57 44.59219 26.29449 6931 ft 265 kts 86°
2026-04-30 08:57 44.59410 26.32045 7957 ft 270 kts 85°
2026-04-30 08:57 44.59602 26.34692 8937 ft 276 kts 84°
2026-04-30 08:58 44.59799 26.37409 9942 ft 282 kts 83°
2026-04-30 08:58 44.60002 26.40190 10744 ft 295 kts 84°
2026-04-30 08:58 44.60219 26.43141 11086 ft 320 kts 84°
2026-04-30 08:58 44.60455 26.46364 11542 ft 340 kts 84°
2026-04-30 08:59 44.60701 26.49710 12302 ft 350 kts 85°
2026-04-30 08:59 44.60955 26.53160 13055 ft 359 kts 85°
2026-04-30 08:59 44.61210 26.56667 13995 ft 361 kts 86°
2026-04-30 08:59 44.61466 26.60185 14827 ft 367 kts 86°
2026-04-30 09:00 44.61725 26.63797 15415 ft 376 kts 86°
2026-04-30 09:00 44.61989 26.67493 16039 ft 385 kts 85°
2026-04-30 09:00 44.62257 26.71276 16680 ft 394 kts 85°
2026-04-30 09:00 44.62530 26.75143 17307 ft 402 kts 85°
2026-04-30 09:01 44.62804 26.79057 17944 ft 411 kts 85°
2026-04-30 09:01 44.63089 26.83141 18609 ft 419 kts 85°
2026-04-30 09:01 44.63366 26.87190 19229 ft 425 kts 85°
2026-04-30 09:01 44.63623 26.91352 19883 ft 430 kts 86°
2026-04-30 09:02 44.62597 26.99563 21084 ft 431 kts 120°
2026-04-30 09:02 44.60971 27.03054 21679 ft 425 kts 137°
2026-04-30 09:02 44.58786 27.05802 22274 ft 420 kts 150°
2026-04-30 09:03 44.56378 27.08146 22895 ft 423 kts 153°
2026-04-30 09:03 44.53948 27.10532 23510 ft 429 kts 151°
2026-04-30 09:03 44.51573 27.13040 24066 ft 436 kts 149°
2026-04-30 09:03 44.49188 27.15714 24585 ft 441 kts 148°
2026-04-30 09:04 44.46811 27.18470 25052 ft 446 kts 147°
2026-04-30 09:04 44.44423 27.21276 25444 ft 451 kts 147°
2026-04-30 09:04 44.42019 27.24114 26052 ft 451 kts 147°
2026-04-30 09:04 44.39607 27.26957 26540 ft 456 kts 147°
2026-04-30 09:05 44.37161 27.29830 26978 ft 461 kts 147°
2026-04-30 09:05 44.34696 27.32719 27395 ft 465 kts 147°
2026-04-30 09:05 44.32197 27.35643 27829 ft 469 kts 147°
2026-04-30 09:05 44.29686 27.38579 28241 ft 473 kts 147°
2026-04-30 09:06 44.27158 27.41530 28637 ft 476 kts 147°
2026-04-30 09:06 44.24632 27.44475 29018 ft 480 kts 147°
2026-04-30 09:06 44.22028 27.47509 29396 ft 483 kts 147°
2026-04-30 09:06 44.19478 27.50475 29748 ft 486 kts 147°
2026-04-30 09:07 44.16866 27.53511 30140 ft 490 kts 147°
2026-04-30 09:07 44.14240 27.56558 30499 ft 493 kts 147°
2026-04-30 09:07 44.11592 27.59630 30901 ft 495 kts 147°
2026-04-30 09:07 44.08939 27.62702 31293 ft 497 kts 147°
2026-04-30 09:08 44.06285 27.65774 31749 ft 496 kts 148°
2026-04-30 09:08 44.03640 27.68833 32278 ft 493 kts 148°
2026-04-30 09:08 44.01005 27.71877 32821 ft 490 kts 148°
2026-04-30 09:08 43.98385 27.74899 33322 ft 488 kts 148°
2026-04-30 09:09 43.95804 27.77869 33799 ft 487 kts 148°
2026-04-30 09:09 43.93199 27.80863 34265 ft 485 kts 148°
2026-04-30 09:09 43.90601 27.83844 34624 ft 484 kts 148°
2026-04-30 09:09 43.88000 27.86823 34923 ft 484 kts 148°
2026-04-30 09:10 43.85406 27.89793 35216 ft 485 kts 148°
2026-04-30 09:10 43.82800 27.92773 35451 ft 486 kts 148°
2026-04-30 09:10 43.80189 27.95754 35749 ft 486 kts 148°
2026-04-30 09:10 43.77580 27.98731 36052 ft 486 kts 148°
2026-04-30 09:11 43.74971 28.01705 36360 ft 486 kts 147°
2026-04-30 09:11 43.72362 28.04675 36638 ft 486 kts 147°
2026-04-30 09:11 43.69750 28.07644 36913 ft 486 kts 147°
2026-04-30 09:11 43.67142 28.10605 37159 ft 485 kts 147°
2026-04-30 09:12 43.64533 28.13564 37457 ft 485 kts 147°
2026-04-30 09:12 43.61928 28.16515 37711 ft 485 kts 147°
2026-04-30 09:12 43.59352 28.19430 37941 ft 485 kts 147°
2026-04-30 09:12 43.56746 28.22375 38184 ft 485 kts 146°
2026-04-30 09:13 43.54102 28.25360 38415 ft 484 kts 146°
2026-04-30 09:13 43.51531 28.28261 38659 ft 484 kts 146°
2026-04-30 09:13 43.48894 28.31233 38872 ft 484 kts 146°
2026-04-30 09:13 43.46326 28.34124 39084 ft 482 kts 146°
2026-04-30 09:14 43.43728 28.37045 39189 ft 482 kts 146°
2026-04-30 09:14 43.41122 28.39971 39210 ft 481 kts 146°
2026-04-30 09:14 43.35934 28.45787 39213 ft 481 kts 146°
2026-04-30 09:15 43.30744 28.51591 39210 ft 481 kts 146°
2026-04-30 09:15 43.25553 28.57386 39212 ft 480 kts 147°
2026-04-30 09:16 43.20381 28.63144 39207 ft 479 kts 147°
2026-04-30 09:16 43.15202 28.68897 39203 ft 479 kts 147°
2026-04-30 09:17 43.10007 28.74458 39200 ft 472 kts 154°
2026-04-30 09:17 43.04129 28.78043 39199 ft 455 kts 173°
2026-04-30 09:18 42.97986 28.79003 39197 ft 438 kts 189°
2026-04-30 09:18 42.91879 28.78809 39193 ft 439 kts 188°
2026-04-30 09:19 42.85767 28.78647 39195 ft 439 kts 188°
2026-04-30 09:19 42.79690 28.78488 39187 ft 440 kts 188°
2026-04-30 09:20 42.73568 28.78325 39199 ft 440 kts 188°
2026-04-30 09:20 42.67445 28.78163 39199 ft 440 kts 188°
2026-04-30 09:21 42.61318 28.78000 39194 ft 441 kts 188°
2026-04-30 09:21 42.55179 28.77838 39198 ft 441 kts 188°
2026-04-30 09:22 42.49040 28.77676 39196 ft 441 kts 188°
2026-04-30 09:22 42.42922 28.77515 39196 ft 442 kts 188°
2026-04-30 09:23 42.36773 28.77353 39190 ft 442 kts 188°
2026-04-30 09:23 42.30613 28.77191 39190 ft 442 kts 188°
2026-04-30 09:24 42.24464 28.77030 39189 ft 442 kts 188°
2026-04-30 09:24 42.18309 28.76869 39175 ft 442 kts 188°
2026-04-30 09:25 42.12156 28.76709 38871 ft 441 kts 188°
2026-04-30 09:25 42.09097 28.76631 38603 ft 439 kts 188°
2026-04-30 09:25 42.06038 28.76590 38309 ft 440 kts 186°
2026-04-30 09:26 42.03006 28.76699 38016 ft 441 kts 185°
2026-04-30 09:26 41.99934 28.76859 37491 ft 443 kts 184°
2026-04-30 09:26 41.96856 28.77018 36957 ft 442 kts 185°
2026-04-30 09:26 41.93782 28.77164 36435 ft 441 kts 185°
2026-04-30 09:27 41.90716 28.77297 35928 ft 440 kts 185°
2026-04-30 09:27 41.87655 28.77422 35423 ft 440 kts 185°
2026-04-30 09:27 41.84590 28.77542 34931 ft 440 kts 185°
2026-04-30 09:27 41.81532 28.77659 34445 ft 440 kts 186°
2026-04-30 09:28 41.78485 28.77435 33826 ft 433 kts 195°
2026-04-30 09:28 41.75570 28.76529 32984 ft 428 kts 205°
2026-04-30 09:28 41.72843 28.74983 32144 ft 422 kts 214°
2026-04-30 09:28 41.70340 28.72949 31339 ft 420 kts 218°
2026-04-30 09:29 41.67858 28.70852 30540 ft 423 kts 217°
2026-04-30 09:29 41.65398 28.68787 29680 ft 423 kts 217°
2026-04-30 09:29 41.62901 28.66702 28781 ft 422 kts 217°
2026-04-30 09:29 41.60402 28.64621 27925 ft 421 kts 217°
2026-04-30 09:30 41.57919 28.62556 27085 ft 420 kts 217°
2026-04-30 09:30 41.55450 28.60503 26284 ft 418 kts 217°
2026-04-30 09:30 41.52983 28.58454 25568 ft 414 kts 217°
2026-04-30 09:30 41.50542 28.56429 24863 ft 411 kts 217°
2026-04-30 09:31 41.48123 28.54424 24163 ft 407 kts 217°
2026-04-30 09:31 41.45727 28.52438 23458 ft 404 kts 217°
2026-04-30 09:31 41.43344 28.50465 22665 ft 401 kts 216°
2026-04-30 09:31 41.41014 28.48537 21906 ft 397 kts 216°
2026-04-30 09:32 41.38657 28.46623 21158 ft 396 kts 212°
2026-04-30 09:32 41.36062 28.45307 20375 ft 403 kts 198°
2026-04-30 09:32 41.33253 28.44933 19590 ft 410 kts 183°
2026-04-30 09:32 41.30415 28.45531 18819 ft 417 kts 169°
2026-04-30 09:33 41.27643 28.46682 18019 ft 417 kts 167°
2026-04-30 09:33 41.24892 28.47837 17169 ft 413 kts 168°
2026-04-30 09:33 41.22132 28.48852 16357 ft 409 kts 170°
2026-04-30 09:33 41.19395 28.49733 15781 ft 399 kts 171°
2026-04-30 09:34 41.16721 28.50523 15325 ft 388 kts 172°
2026-04-30 09:34 41.14115 28.51260 14892 ft 378 kts 172°
2026-04-30 09:34 41.11568 28.51966 14456 ft 370 kts 172°
2026-04-30 09:34 41.09079 28.52653 14011 ft 362 kts 172°
2026-04-30 09:35 41.06633 28.53329 13545 ft 355 kts 172°
2026-04-30 09:35 41.04229 28.53993 13068 ft 349 kts 172°
2026-04-30 09:35 41.01870 28.54646 12600 ft 343 kts 172°
2026-04-30 09:35 40.99552 28.55288 12134 ft 338 kts 172°
2026-04-30 09:36 40.98036 28.55707 11824 ft 335 kts 172°
2026-04-30 09:36 40.95769 28.56334 11386 ft 330 kts 172°
2026-04-30 09:36 40.92824 28.57220 10814 ft 326 kts 163°
2026-04-30 09:36 40.91482 28.58139 10675 ft 318 kts 147°
2026-04-30 09:37 40.89997 28.60220 10343 ft 310 kts 123°
2026-04-30 09:37 40.88897 28.63665 9616 ft 305 kts 110°
2026-04-30 09:37 40.88448 28.65403 9384 ft 297 kts 110°
2026-04-30 09:37 40.87774 28.67938 8928 ft 290 kts 112°
2026-04-30 09:38 40.87063 28.70404 8529 ft 281 kts 113°
2026-04-30 09:38 40.86352 28.72726 8368 ft 263 kts 114°
2026-04-30 09:38 40.85665 28.74897 8145 ft 253 kts 115°
2026-04-30 09:38 40.84982 28.77018 7888 ft 249 kts 115°
2026-04-30 09:39 40.84304 28.79106 7547 ft 247 kts 115°
2026-04-30 09:39 40.83626 28.81192 7199 ft 245 kts 115°
2026-04-30 09:39 40.82954 28.83266 6822 ft 246 kts 116°
2026-04-30 09:39 40.82294 28.85298 6526 ft 242 kts 115°
2026-04-30 09:40 40.81633 28.87331 6207 ft 239 kts 115°
2026-04-30 09:40 40.80973 28.89361 5935 ft 237 kts 115°
2026-04-30 09:40 40.80333 28.91333 5581 ft 235 kts 115°
2026-04-30 09:40 40.79692 28.93307 5136 ft 233 kts 116°
2026-04-30 09:41 40.79054 28.95261 4805 ft 229 kts 115°
2026-04-30 09:41 40.78427 28.97181 4487 ft 226 kts 115°
2026-04-30 09:41 40.77807 28.99074 4182 ft 224 kts 115°
2026-04-30 09:41 40.77380 29.01007 4010 ft 221 kts 91°
2026-04-30 09:42 40.77779 29.02977 3997 ft 224 kts 59°
2026-04-30 09:42 40.78660 29.04602 3931 ft 212 kts 52°
2026-04-30 09:42 40.79594 29.06069 3768 ft 207 kts 50°
2026-04-30 09:42 40.80522 29.07509 3536 ft 205 kts 51°
2026-04-30 09:43 40.81412 29.08930 3317 ft 201 kts 52°
2026-04-30 09:43 40.82211 29.10419 3117 ft 196 kts 59°
2026-04-30 09:43 40.82863 29.11959 3025 ft 187 kts 63°
2026-04-30 09:43 40.83421 29.13446 2995 ft 176 kts 64°
2026-04-30 09:44 40.83965 29.14915 3000 ft 178 kts 64°
2026-04-30 09:44 40.84511 29.16398 2857 ft 183 kts 64°
2026-04-30 09:44 40.85070 29.17914 2557 ft 185 kts 63°
2026-04-30 09:44 40.85632 29.19444 2257 ft 185 kts 63°
2026-04-30 09:45 40.86179 29.20929 1983 ft 170 kts 62°
2026-04-30 09:45 40.86661 29.22241 1722 ft 152 kts 62°
2026-04-30 09:45 40.87092 29.23412 1483 ft 133 kts 61°
2026-04-30 09:45 40.87477 29.24457 1287 ft 120 kts 62°
2026-04-30 09:46 40.87842 29.25443 1087 ft 122 kts 61°
2026-04-30 09:46 40.88209 29.26444 872 ft 117 kts 62°
2026-04-30 09:46 40.88576 29.27439 687 ft 122 kts 63°
2026-04-30 09:46 40.88939 29.28442 526 ft 118 kts 60°
2026-04-30 09:47 40.89300 29.29419 344 ft 120 kts 61°
2026-04-30 09:47 40.89623 29.30292 320 ft 81 kts 64°
2026-04-30 09:47 40.89807 29.30798 320 ft 53 kts 64°
2026-04-30 09:47 40.89964 29.31173 319 ft 38 kts 47°
2026-04-30 09:48 40.90121 29.31342 320 ft 20 kts 35°
2026-04-30 09:48 40.90210 29.31419 321 ft 14 kts 33°
2026-04-30 09:48 40.90294 29.31502 319 ft 14 kts 20°
2026-04-30 09:48 40.90382 29.31458 320 ft 15 kts 333°
2026-04-30 09:49 40.90454 29.31449 320 ft 9 kts 62°
2026-04-30 09:49 40.90446 29.31513 320 ft 8 kts 156°
2026-04-30 09:49 40.90395 29.31545 320 ft 2 kts 154°